Home > Weather > Paradise > Past weeks

Flag for Canada Weather for the Past 2 Weeks in Paradise, Newfoundland and Labrador, Canada

Now
45 °F

Partly sunny.


Feels Like: 35 °F
Forecast: 31 / 47 °F
Wind: 26 mph from Northwest

Location: St. John's

Current Time: Apr 30, 2016 at 12:50:43 PM

Latest Report: Apr 30, 2016 at 12:30 PM


Visibility: 15 mi

Pressure: 29.95 "Hg

Humidity: 57%

Dew Point: 30 °F

Location of ParadiseLocation

Historic Weather in Paradise — Graph

°F

Paradise Temperature Yesterday

Maximum temperature yesterday: 45 °F (at 1:30 PM)
Minimum temperature yesterday: 30 °F (at 6:15 AM)
Average temperature yesterday: 35 °F

High & Low Weather Summary for the Past Weeks

 TemperatureHumidityPressure
High50 °F (Apr 24, 9:30 AM)100% (Apr 17, 7:30 AM)30.43 "Hg (Apr 17, 7:30 AM)
Low25 °F (Apr 26, 5:30 AM)41% (Apr 26, 2:24 PM)29.08 "Hg (Apr 20, 7:30 PM)
Average34 °F81%29.84 "Hg
* Reported Apr 15 11:30 AM — Apr 30 11:30 AM, Paradise, Weather by CustomWeather, © 2016

Note: Actual official high and low records may vary slightly from our data, if they occured in-between our weather recording intervals... More about our weather records

Advertising

Paradise Weather History for the Previous 24 Hours

Scroll right to see more
 ConditionsComfort  
Time TempWeatherWind HumidityBarometerVisibility
11:30 AM
Sat, Apr 30
45 °FScattered clouds.25 mph53%29.93 "Hg15 mi
10:30 AM43 °FScattered clouds.31 mph57%29.90 "Hg15 mi
9:30 AM41 °FScattered clouds.22 mph61%29.89 "Hg15 mi
8:30 AM37 °FScattered clouds.30 mph65%29.86 "Hg15 mi
7:30 AM36 °FScattered clouds.29 mph65%29.83 "Hg15 mi
6:30 AM34 °FPassing clouds.26 mph70%29.82 "Hg15 mi
5:30 AM34 °FPassing clouds.32 mph65%29.80 "Hg15 mi
4:30 AM32 °FPassing clouds.32 mph69%29.80 "Hg15 mi
3:30 AM32 °FClear.32 mph69%29.80 "Hg15 mi
2:30 AM32 °FClear.32 mph69%29.80 "Hg15 mi
1:30 AM32 °FClear.33 mph64%29.83 "Hg15 mi
12:30 AM32 °FClear.30 mph64%29.85 "Hg15 mi
11:30 PM
Fri, Apr 29
32 °FClear.30 mph64%29.85 "Hg15 mi
10:30 PM32 °FClear.26 mph64%29.85 "Hg15 mi
8:30 PM34 °FSunny.25 mph56%29.84 "Hg15 mi
7:30 PM36 °FPassing clouds.28 mph48%29.83 "Hg15 mi
6:30 PM37 °FScattered clouds.28 mph56%29.83 "Hg15 mi
5:30 PM39 °FScattered clouds.30 mph48%29.83 "Hg15 mi
4:30 PM41 °FScattered clouds.29 mph45%29.83 "Hg15 mi
3:30 PM41 °FPartly sunny.30 mph49%29.83 "Hg15 mi
2:30 PM43 °FPartly sunny.25 mph46%29.85 "Hg15 mi
1:30 PM45 °FPartly sunny.21 mph46%29.84 "Hg15 mi
12:30 PM41 °FPartly sunny.18 mph61%29.85 "Hg15 mi
Weather by CustomWeather, © 2016

See weather overviewHow to use our weather pages